logo Eve Who17,871,871 Characters
839,505 Corporations
9,331 Alliances

New mobile friendly version in progress... (beta)

Home Pilots Corporations Alliances FAQ 

corp logo
alli logo
character image
Character:Tradari
Corporation:Blank-Space
Alliance:Northern Coalition.
Sec. Status:4.7
Links:zKillboard
EveSkillBoard
Eve-Search
Last Updated: 2019-08-18 12:48:50 | 653992279
Corp. History
 NameJoinedLeft
corp logoBlank-Space2019/05/18 18:52
corp logoAliastra2019/05/18 18:342019/05/18 18:51
corp logoRunning with Wolves2019/04/28 17:582019/05/18 18:33
corp logoAliastra2019/03/30 08:312019/04/28 17:57
corp logoRunning with Wolves2018/08/29 18:172019/03/30 08:30
corp logoAliastra2018/08/29 18:162018/08/29 18:16
corp logoGemini Empire INC2018/07/16 19:432018/08/29 18:15
corp logoAliastra2018/07/16 19:422018/07/16 19:42
corp logoSuddenly Spacewhales2018/02/27 17:582018/07/16 19:41
corp logoAliastra2018/02/27 17:582018/02/27 17:57
corp logo16th Spacial Expedition2018/02/13 22:422018/02/27 17:57
corp logoValkyrie Knights2017/04/09 14:132018/02/13 22:41
corp logoEschelon Directive2016/05/25 10:532017/04/09 14:12
corp logoLatex-Cuffs and High Heels2014/05/12 22:132016/05/25 10:52
corp logoAliastra2014/05/12 22:112014/05/12 22:12
corp logoX-Prot2014/04/30 20:102014/05/12 22:10
corp logoAliastra2014/04/30 20:092014/04/30 20:09
corp logoLatex-Cuffs and High Heels2013/06/26 13:562014/04/30 20:08
corp logoEve Corporation 1256540772013/05/19 22:572013/06/26 13:55
corp logoLatex-Cuffs and High Heels2013/01/27 01:372013/05/19 22:56
corp logoLUSH Industrys2013/01/07 05:332013/01/27 01:36
corp logoAliastra2013/01/07 00:522013/01/07 05:32
corp logoMc funnybunny's troglodyte's2013/01/04 22:372013/01/07 00:51
corp logoNo Bullshit2012/12/22 15:492013/01/04 22:36
corp logoKihtaled Manufacturing Inc2012/12/09 16:462012/12/22 15:48
corp logoPoison Pearl Solutions2012/07/17 20:432012/12/09 16:45
corp logoAliastra2012/07/17 20:382012/07/17 20:42
corp logoMoon In Scorpio2012/06/21 20:362012/07/17 20:37
corp logoBlack Dragons of the Apocalypse2012/05/05 20:572012/06/21 20:35
corp logoAliastra2012/05/05 17:442012/05/05 20:56
corp logoInterwebs Cooter Explosion2012/05/05 02:082012/05/05 17:43
corp logoBlack Dragons of the Apocalypse2012/03/11 15:092012/05/05 02:07
corp logoLUSH Industrys2011/06/18 08:372012/03/11 15:08
corp logoBeyond Control.2011/04/16 17:542011/06/18 08:36
corp logoAliastra2011/04/15 20:152011/04/16 17:53
corp logoMiddleton and Mercer LLP2011/03/14 16:462011/04/15 20:14
corp logoHarsh Innovations2011/02/12 09:552011/03/14 16:45
corp logoLUSH Industrys2011/02/08 00:152011/02/12 09:54
corp logoKinetic Cartel2011/01/12 15:422011/02/08 00:14
corp logoLUSH Industrys2010/10/08 18:382011/01/12 15:41
corp logoMadhatters Inc.2010/09/27 19:272010/10/08 18:37
corp logoldiocracy2010/08/14 16:332010/09/27 19:26
corp logoThe After LIfe2010/07/22 20:462010/08/14 16:32
corp logoAliastra2010/07/22 20:452010/07/22 20:45
corp logoRage For Order2010/07/20 16:082010/07/22 20:44
corp logoLUSH Industrys2010/07/01 20:322010/07/20 16:07
corp logoTrust Doesn't Rust2010/05/29 18:302010/07/01 20:31
corp logoLUSH Industrys2010/05/16 00:002010/05/29 18:29
corp logoPwnswarm2010/04/09 07:382010/05/15 23:59
corp logoAliastra2010/04/09 05:052010/04/09 07:37
corp logoEsto Perpetua2009/12/06 18:022010/04/09 05:04
corp logoLUSH Industrys2009/07/06 23:312009/12/06 18:01
corp logoEsto Perpetua2009/06/19 17:462009/07/06 23:30
corp logoLUSH Industrys2009/06/06 08:582009/06/19 17:45
corp logoAliastra2009/06/06 08:262009/06/06 08:57
corp logoWarped Mining2009/05/31 08:372009/06/06 08:25
corp logoEsto Perpetua2009/02/16 16:362009/05/31 08:36
corp logoLUSH Industrys2008/06/16 18:152009/02/16 16:35
corp logoDigital Fury Corporation2008/03/17 21:062008/06/16 18:14
corp logoAliastra2008/03/17 20:552008/03/17 21:05
corp logoUniversal Moose Foundation2008/02/17 15:402008/03/17 20:54
corp logoLUSH Industrys2007/11/19 08:092008/02/17 15:39
corp logoAliastra2007/11/19 08:062007/11/19 08:08
corp logoDigital Fury Corporation2007/05/25 17:392007/11/19 08:05
corp logoAliastra2007/05/25 17:382007/05/25 17:38
corp logoThe BlackMerX2007/05/07 18:222007/05/25 17:37
corp logoAliastra2007/05/07 18:192007/05/07 18:21
corp logoSkull Soft2007/01/02 22:052007/05/07 18:18
corp logoAliastra2007/01/02 19:492007/01/02 22:04
corp logoMalicious Intentions2006/12/18 18:182007/01/02 19:48
corp logoAliastra2006/12/18 09:092006/12/18 18:17
corp logoViper-Squadron VS2006/10/06 17:052006/12/18 09:08
corp logoAliastra2006/10/06 16:142006/10/06 17:04
corp logoMean Anglo-Danes2006/05/28 15:232006/10/06 16:13
corp logoViper-Squadron VS2006/04/14 00:092006/05/28 15:22
corp logoVS-UK2006/04/10 06:362006/04/14 00:08
corp logoCenter for Advanced Studies2006/04/09 00:102006/04/10 06:35


Any pilots, corporations, or alliances that relate to actual people or entities are purely coincidental.
7q/27ms Disclaimer A / C Brought to you by: Squizz Caphinator Forum Thread
EVE Online and the EVE logo are the registered trademarks of CCP hf. All rights are reserved worldwide. All other trademarks are the property of their respective owners. EVE Online, the EVE logo, EVE and all associated logos and designs are the intellectual property of CCP hf. All artwork, screenshots, characters, vehicles, storylines, world facts or other recognizable features of the intellectual property relating to these trademarks are likewise the intellectual property of CCP hf. CCP hf. has granted permission to evewho.com to use EVE Online and all associated logos and designs for promotional and information purposes on its website but does not endorse, and is not in any way affiliated with, evewho.com. CCP is in no way responsible for the content on or functioning of this website, nor can it be liable for any damage arising from the use of this website.